Vorticity
4 4 4 4 4 4 4 4 4 4 4 4 5 5 5 5 5 5 5 5 5 5 5 5 5 5 5 5 6 6 6 6 6 6 6 6 6 6 6 6 6 6 6 7 7 7 7 8 8 9 10 10 10 11 10 10 9 7 6 6 5 4 4 4 4 5 5 6 5 4 3 1 0 0 1 2 3 4 5 6 6 6 6 5 4 4 5 5 5 5 4 4 5 6 6 7 6 4 3 1 0 0 1
5 5 5 5 5 4 4 4 4 5 5 5 5 5 5 5 5 5 5 5 5 5 5 5 5 5 5 5 5 5 5 5 5 5 5 5 5 5 5 5 5 5 6 6 6 6 6 6 6 6 7 7 8 9 10 11 11 10 10 8 7 6 5 5 4 4 4 5 5 5 5 4 2 1 0 1 2 2 3 4 5 6 6 6 5 5 4 5 5 5 5 4 4 5 5 6 7 6 5 3 1 0 -0
5 5 5 5 5 5 5 5 5 5 5 5 5 5 5 5 5 5 5 5 5 5 5 5 5 5 5 5 5 5 5 5 5 5 5 5 5 5 5 5 5 5 5 5 5 5 6 6 6 5 5 5 6 6 7 8 9 10 11 10 10 9 8 7 6 5 4 4 4 5 5 5 4 3 1 1 1 1 1 2 4 5 6 7 7 6 5 4 5 5 5 5 4 4 5 5 6 7 7 5 3 1 0
5 5 5 5 5 5 5 5 5 5 5 6 6 6 6 5 5 5 5 5 4 4 4 4 4 4 4 4 4 4 4 4 4 4 4 4 4 4 4 4 4 4 4 4 4 5 5 5 5 5 5 5 5 5 5 5 6 6 8 9 10 10 10 9 8 7 6 5 5 5 5 5 5 5 4 2 1 1 1 1 2 3 5 6 7 7 6 5 4 4 5 5 5 4 4 5 5 6 7 7 5 3 1
5 5 5 5 5 5 5 5 6 6 6 6 6 6 5 5 5 5 5 4 4 4 4 4 4 4 4 4 4 4 4 4 4 4 4 4 4 4 4 4 4 4 4 4 4 4 4 5 5 5 5 5 5 5 5 5 5 5 5 6 7 7 8 9 9 9 8 7 7 6 5 5 5 5 5 5 3 2 1 1 1 1 2 4 6 7 8 7 5 4 4 5 5 5 4 4 5 5 6 7 7 5 3
5 5 5 5 5 5 6 6 6 6 6 6 6 5 5 5 5 5 4 4 4 4 4 4 4 4 4 4 4 4 4 4 4 4 4 4 4 4 3 3 3 3 3 3 3 3 3 3 4 4 4 4 5 5 5 5 5 5 5 5 5 5 6 6 7 8 9 9 8 8 7 6 6 6 6 6 5 4 3 2 1 0 1 2 3 5 7 8 7 6 4 4 5 5 5 4 4 4 5 6 7 7 5
5 5 5 5 5 5 6 6 6 6 6 6 5 5 5 5 4 4 4 4 4 4 4 4 4 4 4 4 4 4 4 4 4 4 4 4 4 4 4 3 3 3 3 3 3 3 3 3 3 3 3 3 4 4 4 5 5 5 6 6 5 5 5 5 5 6 7 7 8 8 8 7 7 6 6 6 6 6 5 3 2 1 0 0 1 3 5 7 8 8 6 5 4 4 5 5 4 4 4 5 6 7 7
5 5 5 6 6 6 6 6 6 6 5 5 5 4 4 4 4 4 4 4 5 5 5 5 5 5 5 5 5 5 5 5 5 5 4 4 4 4 4 4 4 4 4 4 4 4 4 4 3 3 3 3 4 4 4 4 4 5 5 5 5 5 5 5 5 5 5 6 6 7 8 8 7 7 6 6 6 7 6 5 4 3 1 0 0 1 2 4 6 8 8 6 5 4 4 5 4 4 4 4 5 6 7
6 6 6 6 6 6 6 6 6 5 5 5 4 4 4 4 4 4 4 5 5 5 5 5 5 5 5 5 5 5 5 5 5 5 5 5 5 5 4 4 4 4 4 4 4 4 4 4 4 4 4 4 4 4 4 4 4 5 5 5 6 6 6 6 6 6 5 5 5 6 6 7 7 7 7 6 6 7 7 7 6 5 3 2 1 0 0 2 4 6 8 8 6 5 4 4 4 4 4 4 4 5 6
6 6 6 6 6 6 6 6 5 5 5 4 4 4 4 4 4 4 4 5 5 5 5 5 5 5 5 6 6 6 6 5 5 5 5 5 5 5 4 4 4 4 4 4 4 4 4 4 4 4 4 3 3 3 3 4 4 4 4 5 6 6 6 7 7 7 7 6 6 6 5 6 6 6 6 6 6 6 6 7 7 6 6 4 2 1 -0 -0 1 3 6 8 8 7 5 4 4 4 4 4 4 4 5
6 6 6 6 6 6 6 5 5 5 5 5 4 4 4 5 5 5 5 5 5 5 5 5 5 5 5 6 6 6 6 6 5 5 5 5 5 5 5 5 4 4 4 4 4 4 4 4 4 4 3 3 3 3 2 2 2 3 3 3 4 4 5 6 6 7 7 7 7 7 6 6 6 6 6 6 6 6 6 6 7 7 7 6 5 3 1 0 -0 1 3 6 8 8 7 5 4 4 4 4 4 4 4
6 6 6 6 6 6 5 5 5 5 5 5 5 5 5 5 5 5 5 5 5 5 5 5 5 5 6 6 6 6 6 6 6 6 6 6 5 5 5 5 5 5 5 5 5 4 4 4 4 4 3 3 3 2 2 2 2 1 1 1 2 2 2 3 3 4 5 6 7 7 8 7 7 6 6 6 6 6 6 5 6 6 7 7 7 5 3 1 0 -0 0 3 6 8 8 7 5 4 4 4 4 4 4
6 6 6 6 6 5 5 5 5 5 5 5 5 5 5 5 5 5 5 5 5 5 5 5 6 6 6 6 6 6 6 6 6 6 6 6 6 6 6 5 5 5 5 5 4 4 4 4 3 3 3 3 2 2 2 2 1 1 1 1 1 1 1 1 1 1 2 3 4 5 6 7 7 7 7 6 6 5 5 5 5 5 6 7 7 7 6 4 2 0 -1 1 3 6 9 8 7 5 3 3 4 4 4
6 6 6 6 6 5 5 5 5 5 5 5 5 5 5 5 5 6 6 6 6 6 6 6 6 6 6 6 6 6 6 6 6 5 5 5 5 5 5 5 5 4 4 4 4 4 3 3 3 3 3 2 2 2 2 2 2 2 2 1 1 1 1 1 1 1 1 1 2 2 3 4 6 7 7 7 7 6 6 6 5 5 5 6 7 7 8 6 4 2 0 -1 1 3 7 8 8 7 4 3 3 4 4
7 6 6 6 6 6 5 5 5 5 5 5 5 5 5 5 5 5 6 6 6 6 6 6 6 6 6 5 5 5 5 5 5 5 4 4 4 4 4 4 4 4 3 3 3 3 3 2 2 2 2 2 2 2 2 2 2 2 2 2 2 2 2 2 2 2 2 2 2 2 2 3 3 4 5 6 7 7 7 6 6 5 5 5 5 6 7 8 6 5 2 0 -0 0 3 7 8 8 6 4 3 3 3
7 7 7 6 6 6 6 6 6 6 6 5 5 5 5 5 5 5 5 6 6 6 6 6 6 6 6 5 5 4 4 4 4 4 4 4 3 3 3 3 3 3 3 3 2 2 2 2 1 1 1 1 1 2 2 2 2 2 3 3 3 3 3 3 3 3 3 3 3 3 3 3 3 4 4 5 6 6 7 7 6 6 5 5 5 5 6 7 7 7 5 2 0 -1 0 4 7 8 8 6 4 3 3
7 7 7 7 7 7 7 6 6 6 6 6 6 6 6 6 6 6 6 6 6 6 6 6 6 6 5 5 4 4 4 3 3 3 4 4 4 4 4 4 4 3 3 3 2 2 2 1 1 1 1 1 1 1 1 1 2 2 2 2 3 3 3 4 4 4 4 5 5 5 5 5 4 5 5 5 5 6 6 7 7 6 5 5 5 4 4 5 7 7 7 5 2 0 -1 1 4 7 9 7 6 4 3
8 8 7 7 7 7 7 7 7 7 7 7 6 6 6 6 6 6 6 6 6 6 6 6 6 6 5 5 4 4 4 4 4 4 4 4 4 5 5 4 4 4 4 3 3 3 2 2 1 1 1 1 1 1 1 1 1 1 2 2 3 3 4 4 5 5 6 6 7 7 7 7 7 7 6 6 6 6 6 6 6 6 6 6 5 5 4 4 5 6 8 7 5 2 -0 -1 1 4 8 8 7 5 3
8 8 8 8 8 8 8 8 7 7 7 7 7 7 7 7 7 7 7 6 6 6 6 6 6 6 5 5 5 5 5 5 5 5 5 5 5 5 5 5 5 4 4 4 3 3 3 2 2 2 1 1 1 1 1 1 1 1 2 3 4 5 6 6 7 8 9 10 10 10 11 11 11 10 10 9 9 8 8 7 7 7 6 6 6 5 4 4 4 4 6 7 7 5 2 -0 -0 1 5 8 8 7 5
9 9 9 8 8 8 8 8 8 8 8 8 7 7 7 7 7 7 7 7 7 7 6 6 6 6 6 6 6 6 6 6 6 6 6 6 5 5 5 5 5 4 4 4 4 3 3 3 2 2 2 2 1 1 1 1 1 2 3 4 6 7 9 10 11 12 13 14 15 15 15 15 15 15 14 13 12 11 10 10 9 8 7 7 6 5 5 4 4 3 4 6 7 7 5 2 0 -1 1 6 8 9 7
9 9 9 9 9 8 8 8 8 8 8 8 8 7 7 7 7 7 7 7 7 7 6 6 6 6 6 6 6 6 7 6 6 6 6 6 5 5 5 5 4 4 4 4 4 3 3 3 2 2 2 2 1 1 1 2 3 4 5 7 9 11 12 14 16 17 18 19 19 20 20 20 19 19 18 18 16 15 14 12 12 11 9 8 7 6 5 5 4 3 3 4 5 7 7 5 2 -0 -1 2 6 8 9
9 9 9 9 8 8 8 8 8 8 8 8 8 7 7 7 7 7 7 7 7 7 6 6 6 6 6 6 7 7 7 6 6 6 6 6 5 5 5 5 4 4 4 4 3 3 3 2 2 2 1 1 2 2 3 4 5 7 9 11 13 15 17 19 20 21 22 23 24 24 24 24 24 23 22 21 20 19 17 16 14 13 12 11 9 7 6 5 5 4 3 3 4 5 7 6 4 1 -1 -0 3 6 9
8 8 8 8 8 8 8 8 8 8 8 8 8 7 7 7 7 7 6 6 6 6 6 6 6 6 6 6 6 6 6 6 6 6 6 6 5 5 5 5 4 4 4 3 3 3 2 2 2 1 1 2 3 4 5 7 9 11 14 16 18 20 22 23 24 25 26 27 27 28 28 28 27 27 26 25 24 22 21 19 17 15 14 13 11 10 8 6 5 4 4 3 3 3 5 6 6 4 1 -1 0 3 7
8 8 8 8 8 8 8 8 8 8 8 8 8 7 7 7 7 7 6 6 6 6 6 6 6 6 6 6 6 6 6 6 6 6 6 6 5 5 4 4 4 4 3 3 2 2 2 1 1 2 2 3 5 7 9 11 14 17 19 21 23 25 26 27 27 28 29 29 30 30 31 31 31 30 30 29 27 26 24 22 20 18 16 14 13 12 10 8 6 5 4 4 3 3 3 5 6 5 3 1 -0 0 4
7 7 8 8 8 8 8 8 8 8 8 8 7 7 7 7 7 7 6 6 6 6 6 6 6 6 6 6 6 6 5 6 6 5 5 5 5 5 4 4 4 3 3 2 2 2 1 2 2 3 4 6 9 11 14 16 19 22 24 26 27 29 29 30 30 30 30 30 30 31 31 32 32 32 32 32 31 30 28 26 24 21 18 16 15 14 13 10 8 6 5 4 4 3 2 3 5 6 5 3 1 -1 1
7 7 7 7 8 8 8 8 8 8 8 8 7 7 7 7 7 7 6 6 6 6 6 6 6 6 5 5 5 5 5 5 5 5 5 4 4 4 4 4 3 3 2 2 2 1 2 3 4 6 8 10 13 16 19 21 24 26 28 29 30 31 31 31 31 31 30 30 29 29 29 30 31 32 32 33 33 33 32 30 28 25 22 19 17 15 14 13 11 8 6 5 4 4 3 3 3 5 6 5 3 0 -1
6 6 7 7 7 8 8 8 8 8 8 8 7 7 7 7 7 7 6 6 6 6 6 6 6 6 5 5 5 5 5 5 5 4 4 4 4 3 3 3 3 2 2 2 2 2 3 5 7 10 12 15 18 21 23 26 28 29 30 31 31 31 31 30 30 29 29 28 28 27 27 27 28 28 30 31 32 33 34 33 32 30 27 23 20 17 15 14 13 11 8 6 5 4 4 3 3 3 5 5 4 2 -0
6 6 6 7 7 8 8 8 8 8 8 8 8 7 7 7 7 7 6 6 6 6 6 6 5 5 5 5 5 5 5 4 4 4 4 4 3 3 3 3 2 2 2 2 3 4 6 8 11 14 17 20 22 25 27 29 30 31 31 31 30 30 29 28 27 27 27 27 26 26 26 25 25 25 26 27 29 30 33 34 34 33 31 28 25 21 18 16 15 13 10 8 6 4 4 3 3 3 3 4 5 4 1
5 5 6 6 7 7 8 8 8 8 8 8 8 7 7 7 6 6 6 6 6 6 5 5 5 5 5 5 5 5 4 4 4 4 3 3 3 3 2 2 2 2 2 3 5 7 9 13 16 18 21 24 26 28 29 30 30 30 29 29 28 27 26 26 26 26 26 26 27 27 27 27 26 26 25 25 25 26 28 31 33 34 34 33 30 26 22 19 17 15 13 10 7 5 4 4 3 3 2 3 4 5 3
5 5 5 6 6 7 7 8 8 8 8 8 7 7 7 7 6 6 6 6 6 6 5 5 5 5 5 5 5 4 4 4 4 3 3 3 3 2 2 2 2 3 3 5 8 10 13 17 19 22 25 26 28 29 29 29 29 28 27 26 26 25 25 26 26 27 27 28 29 30 30 30 30 30 29 27 26 25 25 26 29 31 33 34 33 31 28 24 21 18 16 13 10 7 5 4 4 3 2 2 3 4 4
4 4 5 5 6 6 7 7 7 8 8 7 7 7 7 6 6 6 6 6 6 6 5 5 5 5 5 5 4 4 4 4 3 3 3 2 2 2 2 2 3 4 6 8 11 14 18 20 22 25 27 28 28 28 28 27 26 26 25 25 25 25 26 27 28 29 30 31 31 32 33 34 34 34 34 33 31 30 27 26 26 27 29 32 33 34 32 29 26 23 20 17 14 10 6 5 4 4 3 2 2 3 4
4 4 4 5 5 6 6 7 7 7 7 7 7 7 6 6 6 6 6 6 5 5 5 5 5 5 4 4 4 4 4 3 3 3 2 2 2 2 3 3 4 6 8 11 14 18 21 23 25 26 28 28 27 27 26 25 25 24 24 25 25 26 27 28 28 29 30 31 31 32 33 34 35 36 37 37 37 36 34 31 28 26 25 28 30 33 34 32 30 28 25 22 19 14 9 6 4 4 3 2 2 2 3
3 3 4 4 5 5 5 6 7 7 7 7 7 7 6 6 6 6 6 6 5 5 5 5 5 4 4 4 4 3 3 3 2 2 2 2 2 3 4 4 6 8 11 15 18 21 23 25 27 27 27 27 26 25 24 24 24 24 25 25 26 26 27 27 28 28 28 29 29 29 30 31 32 34 35 37 38 39 39 37 34 31 27 26 26 28 32 33 32 31 29 27 24 20 14 9 6 4 4 3 2 2 2
3 3 3 4 4 5 5 6 6 7 7 7 7 6 6 6 6 6 6 6 5 5 5 5 5 4 4 4 4 3 3 2 2 2 2 2 3 4 5 6 8 11 14 18 21 23 25 26 27 26 26 25 24 23 23 23 24 24 25 25 26 26 26 26 26 26 26 26 27 27 27 27 28 29 31 33 35 37 39 40 40 37 33 29 26 25 27 30 32 32 31 30 28 25 20 14 9 6 4 3 3 2 2
2 3 3 3 4 4 5 6 6 6 7 7 7 6 6 6 6 6 6 6 5 5 5 5 5 4 4 4 3 3 2 2 2 2 2 3 4 5 6 8 11 14 17 21 23 25 25 26 26 25 24 23 23 22 23 23 24 24 25 25 25 25 25 25 25 25 25 26 26 26 26 26 26 26 27 28 30 32 34 38 40 41 40 35 30 26 24 26 29 32 33 32 31 30 26 19 13 8 5 4 3 2 1
2 2 2 3 3 4 5 5 6 6 6 7 7 6 6 6 6 6 6 5 5 5 5 5 4 4 4 3 3 3 2 2 2 2 3 4 5 6 8 10 14 17 20 23 25 26 26 26 25 23 23 22 22 22 23 23 23 24 24 24 24 24 24 24 25 25 26 26 27 27 27 26 26 25 25 26 26 28 29 32 36 39 42 41 37 31 26 24 26 29 32 32 33 33 32 27 20 13 8 6 4 3 2
2 2 2 3 3 4 5 5 6 6 6 7 6 6 6 6 6 6 5 5 5 5 5 5 4 4 4 3 3 2 2 2 2 3 3 5 6 8 10 13 16 19 23 24 25 26 26 25 23 22 21 22 22 22 23 23 23 23 23 23 23 24 24 25 25 26 26 27 27 28 28 27 27 26 26 25 25 25 26 28 30 34 38 41 41 38 32 27 24 25 28 31 32 34 35 33 27 20 13 9 6 3 2
2 2 2 3 3 4 5 5 6 6 7 7 6 6 6 6 5 5 5 5 5 5 5 5 5 4 4 3 3 2 2 2 3 3 4 5 7 10 13 15 18 21 24 25 25 25 25 23 22 21 21 21 22 22 22 22 22 22 23 23 24 24 25 25 26 26 27 27 27 27 28 28 27 27 27 26 25 25 25 25 27 29 33 37 40 41 38 32 27 24 24 27 30 32 33 35 33 28 21 15 10 6 3
2 2 3 3 3 4 5 5 6 6 7 7 7 6 6 5 5 5 5 5 5 5 5 5 4 4 4 3 2 2 2 3 3 4 5 7 9 11 14 17 20 23 25 25 25 25 23 21 21 21 21 22 22 22 21 22 22 23 23 24 24 25 25 25 25 26 26 26 26 26 27 27 27 27 27 27 26 26 25 25 25 26 28 32 36 40 41 37 32 27 23 24 27 29 31 34 35 33 28 21 16 11 5
3 3 3 3 4 4 5 5 6 6 7 7 6 6 6 5 5 5 5 5 5 5 5 5 4 4 4 3 3 2 2 3 4 5 6 8 10 13 16 19 22 24 25 25 24 23 22 21 21 21 21 21 21 21 21 22 23 24 24 24 25 24 24 24 24 25 25 25 25 25 25 25 26 26 27 27 27 26 26 26 25 25 25 28 32 36 40 40 37 32 26 24 24 26 29 32 34 35 32 27 23 18 11
3 3 3 3 4 4 5 5 6 6 7 7 6 6 6 5 5 5 5 5 5 5 5 5 4 4 3 3 3 3 3 4 5 6 7 10 12 14 17 20 23 25 26 25 23 22 21 21 21 21 21 21 21 21 22 23 24 25 25 24 24 24 23 23 23 23 24 24 24 24 24 25 25 26 26 27 27 27 27 26 26 26 25 26 28 31 36 39 39 37 31 27 24 24 26 29 32 34 34 31 29 26 19
3 3 3 4 4 4 5 5 6 6 7 7 6 6 5 5 5 5 5 5 5 5 5 5 4 3 3 3 3 3 3 4 6 8 9 11 13 16 18 21 24 26 26 24 22 21 20 21 21 21 20 20 21 22 23 25 25 25 24 24 23 22 22 22 22 22 23 23 24 24 24 25 25 26 26 27 27 27 27 27 27 26 26 26 26 28 32 35 38 38 35 30 26 23 23 26 29 32 33 31 32 32 27
3 3 4 4 4 4 5 5 6 7 7 7 6 6 5 5 5 5 5 5 5 5 5 5 4 3 3 3 3 4 4 5 7 9 10 12 14 17 20 23 24 25 25 23 21 20 20 21 21 20 20 20 22 23 25 25 25 24 23 22 21 21 21 21 21 22 23 23 24 24 25 25 26 26 27 27 28 28 28 28 28 27 27 26 26 27 28 31 35 37 37 33 29 24 21 22 25 28 29 30 33 35 33
4 4 4 4 4 4 5 6 6 7 7 7 6 6 5 5 5 5 5 6 5 5 5 5 4 4 3 3 4 4 5 6 7 9 11 13 15 18 22 24 25 24 22 22 21 21 21 21 20 20 20 21 23 24 25 25 24 23 22 21 20 20 20 21 21 22 23 24 24 25 25 25 26 27 28 28 28 28 29 29 29 28 28 27 26 26 27 28 31 33 36 35 31 27 21 20 21 23 25 28 32 35 36
4 4 4 4 4 4 5 6 6 7 7 7 6 6 5 5 5 5 5 6 6 5 5 4 4 4 4 4 4 5 6 7 8 9 11 14 17 19 22 24 24 23 21 21 21 21 21 21 20 20 21 23 24 25 25 24 23 22 21 20 20 20 20 21 21 22 22 23 24 25 25 25 25 26 28 29 29 29 29 30 30 29 29 28 27 27 26 27 28 30 33 34 33 29 24 20 19 19 21 25 29 34 36
4 4 4 4 4 5 5 6 6 7 7 7 6 6 5 5 5 5 6 6 6 6 5 4 4 4 4 5 6 6 7 8 9 10 12 15 18 20 22 23 23 23 21 21 21 21 21 20 20 21 22 24 25 25 24 23 22 21 20 20 20 20 20 20 21 21 21 22 23 24 24 24 24 25 27 29 29 30 30 30 30 30 30 29 28 27 26 26 26 27 30 34 34 33 28 23 19 18 18 21 26 31 35
4 4 4 4 4 5 5 6 6 7 7 6 6 6 5 5 5 6 6 6 6 6 5 4 4 4 4 5 6 8 8 8 10 11 12 15 19 22 22 21 22 22 22 21 21 21 21 20 20 22 23 25 25 24 23 22 21 20 21 20 20 20 20 20 20 20 20 21 21 22 23 22 22 23 25 28 30 30 30 30 31 31 31 30 29 28 27 26 25 25 27 32 35 36 34 28 23 19 17 19 23 29 33
4 4 4 4 4 4 5 6 6 7 7 6 6 6 5 5 5 6 6 6 5 5 5 5 4 4 4 5 7 9 10 10 12 12 11 13 17 22 25 22 20 20 22 21 21 21 21 20 21 23 25 25 25 23 22 21 20 20 21 20 20 20 19 19 19 19 19 19 20 20 21 21 21 21 23 26 29 31 32 32 32 32 31 31 30 29 28 27 25 25 25 28 32 35 36 32 27 22 17 18 22 27 31
4 4 4 4 4 5 5 6 6 6 7 6 6 6 6 6 6 6 6 6 5 5 5 5 5 5 4 5 7 9 11 11 12 12 12 13 14 16 21 25 24 22 22 23 22 21 20 20 21 23 26 25 24 22 21 20 20 21 20 20 20 20 19 19 18 18 18 18 18 19 20 20 20 20 22 25 28 31 33 34 34 34 33 32 31 30 29 28 26 25 24 26 29 33 35 34 30 25 20 18 20 24 29
5 4 4 4 4 5 5 6 6 6 6 6 6 6 6 6 6 6 6 6 6 5 5 5 6 6 6 6 8 10 11 11 11 10 12 18 18 14 11 20 24 24 23 23 22 21 19 20 22 24 26 25 23 22 21 21 21 20 20 20 20 19 18 18 18 17 17 17 17 18 18 18 19 20 21 24 28 31 34 36 36 36 35 33 31 30 29 28 27 25 23 24 27 30 33 33 31 27 22 20 20 22 27
5 4 4 4 4 5 5 5 6 6 6 6 6 6 6 6 6 6 6 6 6 6 5 5 5 6 9 9 9 10 12 11 11 12 13 17 21 21 13 10 12 17 22 23 23 22 19 20 22 24 26 25 24 23 22 21 21 20 20 20 19 19 18 17 17 17 16 17 17 17 17 18 18 19 21 24 28 32 35 37 39 39 39 36 33 30 28 28 27 25 23 23 24 27 32 33 32 28 23 21 20 22 26
5 4 4 4 4 5 5 5 6 6 6 6 6 6 6 6 6 6 7 6 5 5 6 5 4 5 8 11 11 11 15 12 14 17 18 12 14 19 20 12 11 14 19 20 21 21 20 20 22 24 26 26 25 24 23 22 21 21 20 19 19 18 17 16 16 16 16 16 17 17 17 17 17 18 21 24 28 31 35 38 40 41 42 39 36 32 29 28 26 25 23 22 22 24 29 32 33 30 25 21 19 20 24
5 4 4 4 4 4 5 5 6 6 6 6 6 6 6 7 7 6 6 6 6 5 6 6 5 4 4 10 12 13 16 16 16 17 21 14 8 7 14 19 19 18 17 16 15 17 20 20 21 24 28 27 26 25 23 22 21 20 19 18 18 17 16 16 16 16 16 17 17 17 17 16 16 17 19 23 27 31 34 37 40 42 44 42 39 35 31 28 27 25 23 21 20 22 25 30 33 33 29 22 18 17 20
6 5 4 4 4 4 5 5 6 6 6 7 6 6 6 7 7 6 6 6 6 6 6 6 7 7 5 8 12 14 15 18 18 16 17 19 14 8 6 15 18 18 17 16 14 14 17 19 20 23 27 27 26 25 24 23 21 20 19 18 17 17 17 17 17 17 18 17 17 16 16 16 15 16 18 22 27 30 33 36 38 41 44 44 41 38 33 30 27 25 23 21 20 19 21 26 31 33 32 26 20 16 16
6 5 4 4 4 4 5 5 6 6 7 7 7 7 6 7 7 6 6 6 6 6 6 5 7 9 9 8 11 14 14 17 19 18 14 17 20 18 7 6 9 13 17 19 19 16 15 16 18 21 26 27 26 25 25 23 21 19 19 18 18 18 18 18 18 19 19 18 17 16 16 15 15 15 16 21 25 29 31 33 36 40 43 44 43 41 37 33 29 26 24 21 19 18 19 23 27 32 34 30 24 18 15
6 5 4 4 4 4 5 5 6 7 7 7 7 7 7 7 6 6 6 6 6 6 7 6 7 9 12 10 10 12 14 16 19 21 18 15 16 18 15 10 9 11 12 15 16 16 15 15 16 19 25 27 26 25 24 23 21 19 18 19 19 19 19 19 19 19 18 18 17 17 16 14 14 14 16 19 23 26 28 31 34 37 41 44 44 43 39 35 31 28 25 22 20 18 18 20 25 29 33 32 27 21 16
6 5 4 4 4 4 5 6 6 7 7 7 7 7 7 7 6 6 6 6 6 7 8 7 7 8 11 14 13 11 13 14 17 21 24 18 13 12 15 17 17 16 13 10 10 11 13 15 16 18 19 25 27 26 22 21 21 20 18 20 21 22 22 22 21 20 18 18 17 17 16 14 13 13 15 18 21 23 26 28 31 35 39 42 44 43 42 38 34 30 27 24 21 19 17 19 22 27 32 33 29 24 17
7 5 4 4 4 4 5 5 6 7 7 7 7 7 7 7 7 7 6 6 6 6 7 8 8 8 8 13 14 14 15 15 15 16 21 20 16 13 13 16 17 18 18 14 11 9 9 14 18 18 15 19 25 27 24 21 19 19 20 21 23 25 26 25 23 21 19 19 18 17 16 15 13 12 14 17 19 21 23 26 29 32 35 39 42 44 43 40 36 33 30 27 23 20 17 18 20 24 30 32 31 27 20
7 6 4 4 3 4 4 5 6 7 8 8 7 7 7 7 7 7 6 6 6 6 7 9 10 10 9 10 13 16 17 18 16 14 11 15 18 18 15 13 14 16 16 15 15 14 12 14 16 17 16 16 18 21 25 23 20 18 19 21 24 27 30 30 27 23 20 19 18 17 16 15 14 13 13 16 18 19 21 23 26 29 31 35 39 43 45 43 39 35 32 30 26 22 18 17 18 22 27 31 32 29 24
7 6 5 4 3 3 4 5 6 7 8 8 8 8 7 7 7 6 6 6 6 7 8 9 9 10 11 12 14 16 17 16 16 15 12 11 14 17 17 15 15 15 14 13 14 15 17 17 16 16 17 17 15 15 19 21 20 18 18 20 25 29 34 35 32 27 22 20 18 17 16 14 13 13 13 15 17 18 19 20 22 25 28 32 36 40 44 44 41 37 33 33 30 26 20 18 18 20 25 29 31 30 27
7 6 5 4 3 3 4 5 6 7 8 9 9 8 8 7 6 6 6 6 6 7 8 9 9 10 13 14 16 17 18 15 14 15 18 14 11 11 15 17 16 15 14 13 13 14 16 18 19 19 19 18 16 15 15 16 16 17 19 21 25 30 36 38 36 31 24 20 19 18 17 14 12 12 12 14 16 18 18 17 17 20 25 29 33 36 41 43 42 40 36 35 33 29 24 20 18 20 24 28 31 31 28
Height
5837 5836 5835 5834 5834 5833 5833 5832 5831 5831 5830 5829 5829 5828 5827 5827 5826 5825 5824 5824 5823 5823 5822 5821 5820 5820 5819 5819 5818 5818 5817 5817 5816 5816 5815 5815 5815 5814 5814 5814 5814 5814 5814 5814 5815 5815 5816 5816 5816 5815 5814 5815 5815 5815 5815 5815 5814 5814 5814 5813 5812 5811 5811 5810 5809 5809 5809 5809 5809 5810 5811 5811 5812 5813 5813 5814 5814 5814 5815 5816 5817 5818 5819 5820 5821 5822 5823 5824 5824 5824 5825 5826 5827 5829 5829 5831 5832 5834 5835 5836 5838 5839 5839
5834 5834 5833 5833 5832 5831 5830 5830 5829 5828 5828 5827 5826 5825 5825 5824 5823 5823 5822 5821 5820 5820 5819 5818 5818 5817 5816 5816 5815 5814 5814 5814 5813 5813 5812 5812 5811 5811 5811 5810 5810 5809 5809 5809 5810 5810 5811 5811 5810 5810 5810 5810 5811 5811 5811 5811 5811 5811 5810 5809 5809 5808 5808 5807 5806 5805 5804 5804 5804 5805 5805 5806 5807 5808 5809 5809 5810 5810 5810 5811 5812 5814 5815 5816 5817 5818 5819 5820 5820 5821 5822 5823 5823 5824 5825 5827 5828 5829 5831 5833 5834 5835 5836
5832 5832 5831 5830 5829 5829 5828 5827 5827 5826 5825 5824 5824 5823 5822 5821 5820 5819 5819 5818 5817 5817 5816 5815 5814 5814 5813 5813 5812 5811 5811 5810 5810 5809 5809 5809 5808 5808 5808 5807 5807 5806 5806 5806 5806 5806 5807 5806 5806 5805 5805 5806 5806 5806 5806 5807 5807 5807 5807 5806 5805 5804 5804 5804 5803 5802 5801 5800 5799 5799 5800 5801 5802 5803 5804 5805 5805 5806 5806 5807 5808 5809 5810 5811 5812 5814 5815 5816 5817 5818 5818 5819 5819 5820 5821 5823 5824 5825 5827 5829 5830 5831 5832
5830 5829 5829 5828 5827 5826 5826 5825 5824 5823 5823 5822 5821 5820 5819 5819 5818 5817 5816 5815 5814 5814 5813 5812 5811 5811 5810 5809 5809 5808 5808 5807 5807 5806 5806 5805 5805 5805 5804 5804 5804 5803 5803 5802 5802 5803 5803 5803 5802 5801 5801 5801 5801 5801 5801 5801 5801 5802 5802 5802 5801 5801 5800 5799 5799 5798 5797 5797 5796 5796 5795 5795 5796 5797 5798 5799 5800 5801 5802 5802 5803 5804 5804 5806 5807 5809 5810 5812 5813 5814 5814 5815 5815 5816 5817 5818 5819 5821 5823 5824 5826 5827 5829
5828 5827 5826 5826 5825 5824 5823 5822 5822 5821 5820 5819 5818 5817 5816 5815 5815 5814 5813 5812 5812 5811 5810 5809 5809 5808 5807 5806 5806 5805 5804 5804 5804 5803 5803 5802 5802 5801 5801 5800 5800 5799 5799 5799 5799 5799 5799 5799 5798 5797 5798 5797 5797 5797 5797 5796 5796 5796 5796 5796 5796 5796 5796 5795 5795 5794 5794 5794 5793 5792 5791 5791 5790 5791 5792 5793 5794 5796 5797 5798 5799 5799 5799 5800 5802 5803 5805 5807 5808 5809 5810 5811 5811 5812 5813 5814 5815 5816 5818 5820 5822 5823 5825
5826 5825 5824 5824 5823 5822 5821 5820 5819 5818 5817 5816 5815 5814 5814 5813 5812 5811 5810 5809 5809 5808 5807 5806 5805 5804 5804 5803 5802 5802 5801 5800 5800 5799 5799 5799 5798 5797 5797 5797 5796 5796 5795 5795 5795 5794 5794 5794 5794 5793 5794 5793 5793 5793 5793 5792 5792 5792 5791 5790 5790 5790 5790 5790 5790 5790 5790 5789 5789 5789 5788 5787 5786 5785 5785 5786 5788 5790 5791 5793 5794 5794 5795 5795 5796 5798 5799 5801 5803 5804 5806 5806 5807 5808 5809 5809 5811 5812 5813 5815 5817 5819 5820
5824 5823 5822 5821 5820 5819 5818 5817 5816 5815 5814 5814 5813 5812 5811 5810 5809 5808 5807 5806 5806 5805 5804 5803 5802 5801 5800 5799 5799 5798 5797 5797 5796 5795 5795 5794 5794 5793 5793 5792 5792 5791 5791 5790 5790 5790 5790 5789 5789 5789 5789 5789 5789 5789 5789 5789 5788 5788 5787 5786 5785 5785 5784 5784 5784 5784 5785 5784 5784 5784 5784 5783 5782 5781 5780 5780 5781 5783 5785 5787 5788 5789 5790 5790 5791 5792 5794 5795 5797 5799 5800 5802 5802 5803 5804 5805 5806 5807 5809 5810 5812 5814 5816
5822 5821 5820 5819 5818 5817 5816 5815 5814 5813 5812 5811 5810 5809 5808 5807 5806 5805 5804 5803 5803 5802 5801 5800 5799 5798 5797 5796 5795 5794 5793 5793 5792 5791 5790 5790 5789 5789 5788 5787 5787 5786 5785 5785 5784 5784 5784 5784 5783 5783 5783 5783 5783 5783 5784 5784 5784 5783 5782 5782 5781 5780 5780 5779 5779 5779 5779 5779 5779 5779 5779 5778 5778 5777 5776 5776 5775 5776 5777 5779 5781 5783 5784 5785 5786 5786 5788 5789 5791 5793 5794 5796 5797 5798 5799 5800 5801 5802 5804 5805 5807 5809 5811
5819 5819 5817 5816 5815 5814 5814 5812 5811 5810 5809 5808 5807 5806 5805 5804 5803 5802 5801 5800 5799 5798 5797 5796 5795 5794 5793 5792 5791 5790 5789 5788 5787 5787 5786 5785 5784 5784 5783 5782 5781 5780 5780 5779 5779 5778 5778 5777 5777 5777 5776 5776 5776 5777 5777 5777 5777 5777 5777 5776 5776 5776 5775 5775 5774 5774 5773 5772 5772 5773 5773 5773 5773 5772 5772 5771 5771 5770 5770 5772 5774 5776 5778 5779 5780 5781 5782 5783 5785 5786 5789 5790 5792 5793 5794 5795 5796 5798 5799 5800 5802 5804 5806
5817 5816 5815 5814 5813 5812 5811 5810 5809 5808 5806 5805 5804 5803 5802 5801 5800 5799 5798 5797 5796 5795 5794 5793 5791 5790 5789 5788 5787 5786 5785 5784 5783 5782 5781 5780 5779 5778 5777 5777 5776 5775 5774 5773 5772 5772 5771 5770 5770 5769 5769 5769 5769 5769 5769 5769 5769 5769 5769 5769 5769 5769 5769 5769 5769 5769 5768 5767 5767 5766 5766 5766 5766 5767 5767 5766 5766 5765 5765 5765 5766 5768 5770 5773 5774 5775 5776 5777 5779 5780 5782 5784 5786 5788 5789 5790 5792 5793 5794 5796 5797 5799 5801
5814 5813 5812 5811 5810 5809 5808 5807 5806 5805 5804 5803 5801 5800 5799 5798 5797 5795 5794 5793 5792 5791 5790 5789 5788 5786 5785 5784 5783 5781 5780 5779 5778 5777 5775 5774 5774 5773 5772 5771 5770 5769 5768 5767 5766 5765 5764 5763 5762 5762 5761 5761 5761 5761 5760 5760 5760 5760 5760 5760 5761 5761 5762 5762 5762 5762 5761 5761 5761 5760 5760 5760 5760 5760 5760 5760 5760 5760 5760 5759 5759 5760 5762 5765 5767 5769 5770 5771 5773 5774 5776 5778 5780 5782 5784 5785 5787 5788 5790 5791 5792 5794 5796
5812 5811 5810 5809 5807 5806 5805 5804 5803 5802 5801 5800 5799 5797 5796 5795 5794 5792 5791 5790 5789 5787 5786 5785 5784 5782 5781 5780 5778 5777 5775 5774 5773 5771 5770 5769 5768 5766 5765 5764 5764 5763 5761 5760 5759 5758 5757 5756 5755 5754 5754 5753 5753 5753 5752 5752 5751 5751 5751 5751 5752 5752 5753 5753 5754 5754 5754 5754 5754 5754 5754 5754 5754 5753 5753 5753 5754 5754 5754 5754 5754 5754 5754 5757 5759 5762 5764 5765 5767 5768 5769 5771 5773 5775 5778 5780 5781 5783 5785 5786 5788 5789 5791
5809 5808 5807 5806 5804 5803 5802 5801 5800 5799 5798 5797 5795 5794 5793 5792 5790 5789 5788 5786 5785 5784 5782 5781 5779 5778 5777 5775 5774 5772 5771 5769 5768 5766 5764 5763 5762 5760 5759 5758 5757 5756 5755 5754 5753 5752 5750 5749 5748 5747 5746 5745 5744 5744 5743 5743 5742 5741 5741 5741 5741 5742 5742 5743 5744 5744 5744 5744 5745 5745 5746 5746 5746 5746 5746 5746 5746 5747 5748 5748 5748 5748 5748 5749 5751 5753 5756 5758 5760 5762 5764 5765 5767 5769 5771 5773 5775 5777 5779 5781 5783 5784 5786
5807 5806 5804 5803 5802 5800 5799 5798 5797 5796 5794 5793 5792 5791 5790 5788 5787 5785 5784 5783 5781 5780 5778 5777 5775 5774 5772 5771 5769 5767 5766 5764 5762 5761 5759 5758 5756 5755 5754 5752 5751 5750 5749 5748 5746 5744 5743 5742 5740 5739 5738 5737 5736 5735 5734 5733 5732 5731 5731 5730 5730 5730 5730 5731 5732 5732 5733 5734 5734 5735 5736 5737 5738 5738 5738 5739 5739 5739 5740 5741 5742 5742 5742 5742 5743 5745 5747 5750 5753 5755 5757 5758 5760 5762 5764 5767 5769 5771 5773 5775 5777 5779 5780
5804 5803 5802 5800 5799 5798 5796 5795 5794 5793 5791 5790 5789 5787 5786 5785 5783 5782 5780 5779 5777 5776 5774 5773 5771 5769 5768 5766 5764 5763 5761 5759 5758 5756 5754 5753 5751 5750 5748 5747 5745 5744 5743 5741 5739 5738 5736 5734 5733 5731 5730 5728 5727 5726 5724 5723 5722 5721 5720 5719 5719 5719 5719 5719 5719 5720 5720 5721 5722 5723 5725 5726 5727 5728 5729 5730 5731 5732 5733 5734 5734 5735 5735 5736 5736 5737 5739 5741 5744 5747 5749 5751 5753 5756 5758 5760 5762 5764 5766 5769 5770 5772 5774
5802 5800 5799 5798 5796 5795 5794 5792 5791 5789 5788 5786 5785 5784 5782 5781 5779 5778 5776 5775 5773 5772 5770 5768 5766 5765 5763 5761 5759 5758 5756 5754 5753 5751 5749 5748 5746 5744 5742 5740 5739 5737 5735 5734 5732 5730 5729 5727 5725 5723 5722 5720 5718 5717 5715 5714 5712 5711 5710 5709 5708 5707 5707 5706 5707 5707 5707 5707 5709 5710 5711 5713 5715 5717 5718 5720 5721 5723 5724 5725 5726 5727 5728 5729 5729 5729 5730 5733 5735 5739 5741 5743 5745 5748 5750 5753 5755 5757 5759 5762 5764 5766 5768
5799 5798 5796 5795 5794 5792 5791 5789 5788 5786 5785 5783 5782 5780 5779 5777 5775 5774 5772 5770 5769 5767 5765 5764 5762 5760 5758 5756 5755 5753 5751 5749 5748 5746 5744 5742 5740 5738 5736 5734 5732 5730 5728 5726 5724 5723 5721 5719 5717 5715 5714 5711 5709 5708 5706 5704 5703 5701 5699 5698 5696 5695 5694 5694 5694 5694 5694 5694 5694 5695 5697 5699 5701 5704 5706 5708 5710 5712 5714 5715 5717 5718 5719 5720 5722 5722 5723 5724 5726 5729 5733 5735 5738 5740 5742 5745 5748 5751 5753 5754 5757 5759 5762
5796 5795 5794 5792 5791 5789 5788 5786 5785 5783 5782 5780 5778 5777 5775 5773 5771 5770 5768 5766 5764 5763 5761 5759 5757 5755 5754 5752 5750 5748 5746 5744 5742 5740 5738 5736 5734 5732 5730 5728 5725 5723 5721 5719 5717 5715 5713 5711 5709 5707 5705 5703 5701 5699 5697 5695 5693 5691 5689 5687 5685 5683 5682 5681 5680 5680 5679 5679 5680 5681 5682 5684 5686 5689 5691 5694 5696 5699 5701 5704 5706 5708 5710 5712 5713 5714 5715 5716 5718 5720 5723 5726 5729 5732 5734 5738 5741 5744 5746 5748 5750 5753 5756
5794 5792 5791 5789 5788 5786 5785 5783 5782 5780 5779 5777 5775 5773 5771 5770 5768 5766 5764 5762 5760 5759 5757 5755 5753 5751 5749 5747 5745 5743 5740 5738 5736 5734 5732 5730 5728 5726 5723 5721 5719 5716 5714 5711 5709 5707 5704 5702 5700 5698 5696 5694 5692 5689 5687 5685 5683 5680 5678 5675 5673 5671 5669 5668 5667 5666 5665 5665 5665 5666 5667 5669 5671 5673 5676 5678 5681 5684 5688 5691 5694 5697 5699 5702 5704 5705 5707 5708 5709 5711 5714 5717 5721 5724 5726 5729 5732 5736 5739 5741 5744 5747 5749
5791 5789 5788 5787 5785 5784 5782 5780 5779 5777 5775 5774 5772 5770 5768 5766 5764 5762 5760 5759 5756 5754 5753 5750 5749 5746 5744 5742 5740 5738 5735 5733 5730 5728 5726 5724 5721 5719 5717 5714 5712 5709 5706 5704 5701 5699 5696 5694 5691 5689 5686 5684 5682 5679 5677 5674 5672 5669 5666 5664 5661 5659 5657 5654 5653 5651 5650 5650 5650 5650 5651 5653 5655 5657 5660 5662 5665 5669 5673 5676 5680 5684 5687 5690 5693 5695 5697 5699 5701 5702 5704 5708 5711 5715 5718 5721 5724 5728 5731 5734 5737 5739 5742
5789 5787 5785 5784 5782 5781 5779 5777 5776 5774 5772 5770 5769 5767 5765 5763 5761 5759 5757 5755 5753 5751 5749 5746 5744 5742 5740 5737 5735 5733 5730 5728 5725 5723 5720 5718 5715 5712 5710 5707 5705 5702 5699 5696 5694 5691 5688 5685 5682 5679 5677 5674 5672 5669 5666 5663 5660 5657 5654 5651 5648 5646 5643 5641 5639 5637 5635 5635 5634 5635 5635 5637 5639 5641 5643 5646 5649 5653 5656 5661 5665 5670 5674 5678 5681 5684 5687 5689 5692 5694 5696 5698 5702 5705 5709 5712 5715 5719 5723 5726 5729 5732 5734
5786 5784 5783 5781 5779 5778 5776 5774 5773 5771 5769 5767 5765 5763 5761 5759 5758 5756 5754 5751 5749 5747 5745 5742 5740 5737 5735 5733 5730 5728 5725 5723 5720 5718 5715 5712 5709 5706 5703 5700 5698 5695 5692 5689 5686 5683 5680 5676 5673 5670 5666 5663 5660 5657 5654 5651 5648 5644 5641 5638 5634 5632 5629 5627 5624 5623 5621 5620 5619 5619 5620 5620 5622 5624 5626 5629 5633 5636 5640 5645 5649 5654 5659 5664 5668 5672 5676 5679 5682 5684 5687 5689 5692 5695 5699 5703 5706 5710 5714 5717 5721 5724 5727
5784 5782 5780 5779 5777 5775 5773 5771 5770 5768 5766 5764 5762 5760 5758 5756 5754 5752 5750 5748 5745 5743 5740 5738 5735 5733 5730 5728 5725 5723 5720 5717 5715 5712 5709 5706 5703 5700 5697 5694 5691 5688 5685 5681 5678 5674 5671 5668 5664 5660 5656 5652 5648 5645 5642 5638 5634 5631 5627 5624 5620 5617 5614 5612 5610 5608 5606 5605 5604 5604 5604 5605 5606 5607 5609 5612 5616 5620 5624 5629 5633 5638 5644 5649 5654 5658 5663 5667 5671 5674 5677 5680 5682 5685 5689 5693 5697 5701 5704 5709 5713 5716 5720
5781 5779 5777 5776 5774 5772 5770 5769 5767 5765 5763 5761 5759 5757 5755 5753 5751 5749 5746 5744 5741 5739 5736 5734 5731 5728 5725 5723 5720 5717 5715 5712 5709 5706 5704 5701 5697 5694 5691 5688 5684 5681 5677 5674 5670 5666 5662 5658 5654 5649 5645 5640 5636 5632 5629 5624 5620 5616 5612 5609 5605 5602 5599 5597 5595 5593 5592 5591 5590 5589 5589 5590 5590 5592 5593 5596 5599 5603 5608 5612 5617 5621 5627 5632 5638 5644 5649 5654 5659 5663 5667 5670 5673 5676 5679 5684 5688 5692 5696 5699 5704 5708 5712
5778 5776 5775 5773 5771 5769 5767 5765 5764 5762 5760 5758 5756 5754 5751 5749 5747 5745 5742 5740 5737 5734 5732 5729 5726 5723 5721 5718 5715 5712 5709 5706 5703 5700 5698 5695 5692 5688 5684 5681 5678 5674 5670 5666 5662 5657 5653 5648 5643 5639 5634 5629 5624 5619 5614 5610 5606 5601 5598 5594 5590 5587 5584 5582 5580 5578 5577 5576 5576 5575 5575 5575 5576 5577 5578 5580 5583 5587 5591 5595 5600 5605 5610 5616 5622 5629 5635 5641 5646 5652 5656 5660 5663 5666 5670 5674 5678 5682 5686 5690 5694 5699 5704
5775 5774 5772 5770 5768 5766 5764 5762 5760 5758 5756 5754 5752 5750 5748 5745 5743 5741 5738 5735 5733 5730 5727 5724 5721 5719 5716 5713 5710 5707 5704 5701 5698 5694 5691 5689 5685 5682 5678 5674 5670 5667 5662 5658 5653 5649 5644 5638 5633 5627 5621 5616 5611 5605 5601 5596 5592 5587 5583 5579 5576 5573 5570 5567 5565 5564 5562 5562 5561 5561 5561 5561 5561 5562 5564 5565 5568 5570 5574 5578 5583 5588 5594 5599 5606 5613 5619 5626 5632 5638 5643 5648 5652 5656 5660 5664 5668 5672 5677 5681 5685 5690 5695
5773 5771 5769 5767 5765 5763 5761 5759 5757 5755 5753 5751 5749 5746 5744 5741 5739 5737 5734 5731 5728 5725 5723 5719 5717 5714 5710 5708 5705 5702 5699 5696 5692 5689 5685 5682 5679 5675 5671 5667 5663 5659 5654 5649 5644 5639 5634 5628 5622 5615 5609 5603 5597 5592 5587 5582 5577 5573 5569 5565 5562 5559 5556 5553 5551 5549 5548 5547 5547 5547 5547 5547 5547 5548 5549 5551 5553 5555 5558 5562 5566 5571 5577 5582 5589 5596 5603 5609 5616 5623 5629 5635 5640 5645 5649 5653 5657 5662 5667 5671 5676 5680 5685
5770 5768 5766 5764 5762 5760 5758 5756 5754 5751 5749 5747 5745 5743 5740 5737 5734 5732 5729 5727 5724 5721 5718 5715 5712 5709 5705 5702 5699 5697 5694 5690 5687 5683 5679 5676 5672 5668 5664 5660 5655 5651 5646 5641 5635 5629 5623 5617 5610 5604 5597 5590 5584 5578 5573 5568 5564 5559 5555 5551 5548 5545 5543 5540 5538 5536 5534 5533 5533 5533 5533 5533 5533 5534 5536 5537 5539 5541 5544 5546 5550 5554 5559 5565 5571 5578 5585 5593 5600 5607 5614 5621 5628 5633 5638 5643 5647 5651 5656 5661 5666 5671 5676
5767 5765 5763 5761 5759 5757 5754 5752 5750 5748 5745 5743 5741 5738 5736 5733 5730 5728 5725 5722 5719 5716 5713 5710 5707 5704 5700 5697 5694 5691 5688 5685 5681 5678 5674 5670 5665 5661 5657 5652 5647 5642 5637 5632 5625 5619 5612 5605 5598 5591 5584 5578 5571 5565 5559 5555 5550 5546 5542 5539 5535 5533 5530 5528 5525 5523 5521 5520 5519 5519 5518 5518 5519 5520 5522 5524 5525 5528 5529 5532 5535 5539 5543 5549 5554 5561 5568 5576 5584 5592 5599 5607 5614 5620 5626 5631 5636 5640 5645 5650 5655 5660 5665
5764 5762 5760 5758 5755 5753 5751 5749 5746 5744 5742 5739 5737 5734 5732 5729 5726 5723 5720 5717 5714 5712 5709 5705 5702 5699 5695 5692 5689 5686 5683 5679 5676 5672 5668 5664 5659 5654 5649 5645 5639 5633 5628 5622 5615 5608 5601 5594 5587 5579 5572 5566 5559 5553 5547 5542 5538 5534 5530 5526 5523 5520 5518 5515 5513 5511 5509 5507 5505 5505 5504 5504 5505 5506 5508 5509 5512 5514 5516 5519 5521 5524 5528 5533 5538 5544 5551 5559 5567 5575 5583 5591 5599 5606 5612 5619 5624 5629 5634 5639 5644 5650 5655
5761 5759 5757 5754 5752 5750 5748 5745 5743 5740 5738 5735 5733 5730 5727 5724 5722 5719 5716 5713 5710 5707 5704 5701 5697 5694 5691 5687 5684 5681 5677 5674 5670 5666 5661 5657 5652 5647 5642 5637 5631 5625 5618 5611 5605 5598 5590 5583 5576 5568 5560 5554 5548 5541 5535 5531 5527 5523 5519 5515 5511 5508 5506 5504 5501 5499 5497 5495 5493 5492 5491 5491 5492 5493 5494 5496 5498 5500 5503 5505 5508 5511 5514 5518 5523 5529 5535 5542 5550 5558 5567 5575 5584 5591 5599 5605 5612 5617 5622 5628 5633 5639 5644
5758 5755 5753 5751 5749 5746 5744 5741 5739 5736 5734 5731 5729 5726 5723 5720 5717 5714 5711 5708 5705 5702 5699 5696 5692 5689 5686 5682 5679 5675 5672 5668 5664 5659 5655 5650 5645 5640 5634 5628 5622 5615 5609 5601 5594 5586 5579 5572 5564 5557 5550 5543 5537 5530 5524 5519 5515 5511 5508 5504 5500 5497 5494 5492 5490 5488 5486 5484 5482 5480 5479 5479 5479 5480 5481 5483 5485 5487 5489 5492 5495 5498 5502 5505 5509 5514 5520 5527 5534 5542 5550 5559 5567 5575 5584 5591 5599 5605 5611 5616 5622 5628 5634
5754 5752 5750 5748 5745 5743 5740 5738 5735 5733 5730 5727 5724 5722 5719 5716 5713 5710 5707 5704 5700 5697 5694 5691 5687 5684 5681 5677 5673 5669 5666 5662 5658 5653 5648 5643 5638 5633 5626 5619 5613 5606 5599 5591 5583 5576 5568 5560 5554 5546 5539 5533 5526 5520 5514 5509 5504 5500 5497 5493 5490 5486 5484 5481 5479 5477 5475 5473 5471 5470 5469 5468 5468 5468 5469 5470 5472 5474 5476 5479 5482 5485 5489 5493 5497 5501 5506 5512 5519 5526 5534 5542 5551 5559 5568 5576 5584 5592 5599 5604 5610 5616 5622
5751 5749 5747 5744 5742 5739 5736 5734 5731 5729 5726 5723 5720 5717 5714 5712 5709 5706 5702 5699 5696 5693 5689 5686 5682 5679 5675 5672 5668 5664 5660 5656 5651 5646 5641 5635 5629 5624 5618 5611 5604 5596 5589 5581 5573 5565 5558 5550 5543 5536 5529 5523 5517 5510 5504 5499 5494 5490 5486 5483 5479 5476 5473 5471 5469 5467 5465 5463 5461 5460 5458 5458 5457 5457 5458 5459 5460 5461 5463 5466 5469 5473 5476 5480 5484 5488 5493 5498 5503 5509 5517 5525 5534 5543 5553 5561 5569 5578 5586 5593 5598 5604 5611
5748 5746 5743 5741 5738 5736 5733 5730 5727 5724 5722 5719 5716 5713 5710 5707 5704 5701 5698 5694 5691 5688 5684 5681 5677 5674 5670 5666 5662 5658 5654 5649 5645 5639 5634 5628 5622 5615 5609 5601 5594 5587 5579 5571 5563 5555 5548 5540 5533 5526 5520 5514 5507 5501 5496 5490 5485 5480 5476 5473 5469 5466 5464 5461 5459 5457 5455 5454 5452 5450 5449 5448 5447 5447 5447 5448 5449 5450 5452 5454 5457 5460 5464 5467 5472 5476 5480 5484 5489 5495 5502 5510 5519 5528 5537 5546 5555 5564 5573 5580 5587 5593 5599
5745 5742 5740 5737 5735 5732 5729 5727 5724 5721 5718 5715 5712 5709 5706 5703 5700 5696 5693 5690 5686 5683 5679 5676 5672 5668 5664 5661 5657 5652 5648 5643 5638 5633 5627 5621 5614 5608 5600 5593 5585 5577 5569 5562 5554 5546 5538 5530 5523 5516 5510 5504 5499 5493 5487 5481 5476 5471 5467 5463 5460 5457 5454 5452 5450 5448 5446 5444 5443 5441 5439 5438 5437 5437 5437 5438 5439 5440 5441 5444 5446 5448 5451 5455 5459 5464 5468 5473 5478 5483 5490 5498 5506 5514 5523 5532 5542 5551 5559 5567 5574 5581 5587
5741 5739 5736 5734 5731 5729 5726 5723 5720 5717 5714 5711 5708 5705 5702 5699 5695 5692 5688 5685 5682 5678 5674 5671 5667 5663 5659 5654 5650 5646 5641 5636 5631 5625 5620 5613 5606 5599 5592 5584 5576 5568 5560 5552 5545 5537 5530 5522 5514 5508 5502 5496 5490 5484 5479 5473 5468 5463 5458 5454 5451 5447 5444 5442 5440 5439 5437 5436 5434 5432 5430 5429 5428 5428 5428 5428 5429 5430 5431 5433 5435 5437 5440 5444 5448 5452 5456 5461 5467 5473 5479 5486 5494 5501 5510 5519 5529 5537 5545 5554 5562 5569 5576
5738 5735 5733 5730 5728 5725 5722 5719 5716 5713 5710 5707 5704 5701 5697 5694 5691 5687 5684 5680 5676 5673 5669 5665 5661 5658 5653 5648 5643 5639 5634 5629 5624 5618 5612 5606 5598 5590 5583 5575 5568 5559 5551 5544 5536 5528 5521 5514 5507 5500 5494 5488 5482 5477 5471 5465 5460 5454 5450 5445 5442 5438 5435 5433 5431 5429 5428 5427 5425 5424 5421 5420 5419 5418 5419 5419 5420 5420 5422 5423 5425 5427 5430 5433 5436 5441 5445 5450 5456 5462 5467 5474 5481 5489 5497 5506 5514 5523 5531 5539 5548 5556 5564
5734 5732 5729 5727 5724 5721 5718 5715 5712 5709 5706 5703 5700 5696 5693 5689 5686 5683 5679 5675 5671 5668 5664 5660 5655 5651 5647 5643 5638 5632 5627 5622 5617 5610 5604 5598 5591 5583 5574 5567 5559 5551 5543 5535 5527 5520 5513 5506 5499 5493 5486 5480 5474 5469 5464 5458 5453 5447 5442 5438 5434 5430 5427 5424 5422 5420 5419 5418 5417 5415 5414 5411 5410 5409 5409 5410 5411 5411 5412 5414 5415 5417 5420 5422 5426 5430 5434 5439 5445 5450 5456 5463 5469 5477 5484 5492 5500 5508 5517 5525 5534 5542 5551
5731 5729 5726 5723 5720 5717 5714 5711 5708 5705 5702 5699 5695 5692 5689 5685 5682 5678 5674 5670 5666 5662 5658 5654 5650 5645 5640 5636 5631 5626 5620 5615 5609 5603 5596 5589 5582 5575 5567 5559 5551 5543 5535 5528 5520 5512 5505 5499 5492 5485 5479 5473 5467 5462 5456 5451 5445 5440 5435 5430 5426 5422 5419 5416 5414 5412 5410 5409 5408 5407 5405 5404 5402 5401 5401 5401 5402 5403 5403 5404 5405 5408 5410 5413 5416 5420 5424 5429 5434 5440 5447 5453 5460 5467 5474 5480 5487 5495 5503 5511 5520 5529 5537
5728 5725 5722 5719 5717 5714 5711 5707 5704 5701 5698 5694 5691 5688 5684 5681 5677 5673 5669 5665 5661 5657 5653 5648 5644 5639 5635 5629 5624 5619 5613 5607 5602 5596 5589 5581 5574 5567 5559 5551 5543 5535 5527 5520 5512 5505 5498 5491 5484 5478 5472 5466 5460 5455 5449 5444 5439 5433 5428 5423 5419 5415 5411 5409 5406 5404 5402 5401 5400 5399 5397 5396 5394 5393 5392 5393 5393 5394 5394 5395 5396 5398 5401 5403 5406 5410 5415 5419 5425 5431 5437 5444 5450 5456 5462 5468 5474 5481 5489 5498 5507 5516 5524
5724 5722 5719 5716 5713 5710 5707 5704 5700 5697 5693 5690 5686 5683 5679 5676 5672 5668 5664 5660 5655 5651 5647 5642 5637 5632 5628 5623 5618 5612 5606 5600 5594 5588 5582 5574 5567 5559 5552 5544 5536 5528 5519 5512 5505 5498 5491 5484 5477 5471 5464 5459 5453 5448 5443 5437 5432 5427 5422 5417 5412 5408 5405 5401 5398 5396 5394 5393 5391 5390 5389 5388 5386 5384 5384 5384 5384 5385 5386 5387 5388 5389 5391 5394 5397 5401 5405 5410 5415 5421 5427 5432 5438 5443 5449 5454 5460 5468 5477 5486 5494 5502 5511
5721 5718 5715 5712 5709 5706 5703 5699 5696 5693 5689 5685 5682 5678 5674 5671 5667 5663 5659 5655 5650 5645 5641 5637 5632 5626 5620 5616 5611 5605 5600 5594 5587 5580 5574 5567 5560 5552 5544 5537 5530 5522 5514 5506 5499 5491 5484 5477 5470 5464 5457 5452 5446 5441 5436 5431 5426 5420 5415 5410 5406 5402 5398 5395 5391 5389 5386 5385 5384 5382 5381 5380 5378 5377 5376 5376 5376 5377 5378 5379 5379 5381 5382 5385 5388 5392 5396 5401 5405 5410 5415 5420 5424 5428 5434 5439 5447 5456 5466 5475 5482 5490 5499
5717 5714 5711 5708 5705 5702 5699 5696 5692 5689 5685 5681 5677 5674 5670 5666 5662 5658 5654 5649 5645 5640 5634 5630 5625 5620 5614 5608 5603 5597 5592 5586 5580 5573 5566 5559 5552 5545 5537 5529 5523 5516 5508 5500 5493 5485 5478 5471 5464 5457 5450 5444 5439 5434 5429 5424 5419 5414 5409 5404 5400 5396 5392 5388 5385 5382 5379 5377 5376 5375 5374 5372 5370 5369 5368 5368 5368 5369 5369 5370 5371 5372 5374 5376 5379 5383 5387 5392 5396 5400 5404 5407 5410 5415 5421 5428 5436 5445 5455 5464 5470 5478 5487
5714 5711 5708 5705 5701 5698 5695 5691 5688 5684 5680 5677 5673 5669 5665 5661 5657 5652 5648 5644 5639 5634 5629 5624 5619 5614 5609 5602 5596 5589 5584 5578 5572 5565 5559 5552 5545 5538 5530 5522 5514 5508 5501 5494 5487 5479 5472 5465 5458 5451 5444 5438 5432 5427 5422 5418 5413 5408 5404 5399 5394 5390 5386 5382 5379 5376 5373 5371 5369 5367 5366 5365 5363 5361 5360 5360 5360 5361 5361 5362 5363 5364 5365 5368 5370 5374 5378 5382 5387 5390 5393 5396 5400 5405 5411 5419 5427 5436 5445 5452 5458 5465 5474
5710 5707 5704 5701 5697 5694 5691 5687 5684 5680 5676 5672 5668 5664 5660 5656 5652 5647 5642 5638 5633 5629 5624 5619 5613 5607 5602 5596 5589 5582 5576 5570 5564 5557 5550 5544 5537 5531 5525 5517 5508 5500 5494 5488 5481 5474 5467 5459 5452 5444 5438 5431 5426 5420 5415 5411 5407 5402 5398 5393 5389 5384 5380 5376 5373 5370 5367 5364 5362 5360 5359 5358 5356 5354 5353 5352 5352 5353 5354 5354 5355 5356 5357 5359 5362 5365 5369 5373 5377 5381 5384 5387 5391 5397 5403 5410 5419 5428 5435 5441 5447 5454 5462
5706 5703 5700 5696 5693 5690 5686 5683 5679 5675 5671 5667 5664 5659 5655 5651 5646 5642 5637 5632 5627 5622 5618 5613 5607 5600 5595 5590 5584 5576 5568 5562 5555 5549 5543 5536 5529 5523 5518 5513 5506 5497 5489 5482 5475 5468 5462 5455 5447 5439 5432 5426 5420 5414 5409 5405 5400 5396 5392 5388 5383 5379 5374 5371 5367 5364 5361 5359 5356 5354 5352 5351 5350 5348 5346 5345 5345 5345 5346 5347 5348 5348 5349 5351 5354 5357 5360 5364 5369 5372 5376 5380 5384 5390 5396 5403 5411 5419 5426 5433 5438 5444 5451
5703 5699 5696 5693 5689 5686 5682 5679 5675 5671 5667 5663 5659 5654 5650 5645 5641 5636 5632 5627 5622 5617 5611 5607 5601 5595 5587 5582 5577 5570 5562 5554 5548 5541 5535 5530 5524 5516 5509 5504 5499 5494 5486 5479 5471 5464 5456 5450 5443 5435 5427 5421 5414 5409 5404 5399 5394 5390 5386 5382 5378 5374 5369 5365 5362 5359 5356 5353 5350 5348 5346 5344 5343 5342 5340 5339 5338 5337 5338 5339 5340 5341 5342 5344 5346 5349 5352 5356 5360 5364 5369 5373 5377 5383 5389 5396 5403 5411 5417 5424 5430 5436 5442
5699 5696 5692 5689 5685 5681 5678 5674 5670 5666 5662 5658 5654 5649 5645 5640 5636 5631 5626 5621 5617 5612 5606 5601 5596 5591 5583 5574 5568 5562 5555 5547 5540 5533 5526 5521 5517 5512 5503 5495 5490 5486 5481 5475 5469 5461 5452 5446 5439 5432 5424 5417 5410 5404 5398 5394 5389 5384 5380 5376 5372 5368 5364 5361 5357 5354 5351 5348 5345 5342 5340 5338 5337 5335 5334 5332 5331 5330 5330 5331 5332 5333 5334 5336 5338 5341 5344 5348 5353 5357 5361 5365 5369 5374 5380 5386 5394 5401 5408 5414 5421 5427 5434
5695 5692 5688 5685 5681 5678 5674 5670 5666 5662 5658 5653 5649 5644 5640 5635 5630 5626 5621 5616 5611 5606 5601 5594 5589 5584 5579 5571 5562 5554 5548 5539 5532 5526 5519 5510 5505 5503 5500 5492 5485 5479 5474 5468 5464 5458 5450 5442 5435 5429 5421 5413 5406 5400 5394 5389 5384 5379 5375 5371 5367 5363 5359 5356 5352 5349 5346 5343 5340 5337 5335 5333 5331 5329 5328 5326 5325 5324 5323 5323 5324 5325 5326 5328 5330 5333 5336 5340 5345 5349 5354 5358 5362 5366 5371 5377 5384 5391 5399 5406 5413 5420 5426
5692 5688 5684 5681 5677 5674 5669 5665 5661 5657 5653 5649 5644 5640 5635 5630 5625 5620 5616 5610 5605 5600 5595 5589 5582 5576 5571 5566 5558 5549 5541 5533 5525 5518 5513 5504 5496 5490 5488 5486 5480 5473 5467 5460 5455 5451 5446 5438 5432 5426 5419 5410 5403 5396 5390 5384 5379 5374 5370 5366 5362 5358 5354 5351 5347 5344 5341 5338 5335 5332 5329 5327 5325 5324 5322 5320 5319 5317 5316 5316 5317 5318 5319 5320 5323 5325 5328 5332 5337 5341 5346 5350 5354 5359 5364 5369 5375 5382 5389 5398 5405 5412 5419
5688 5684 5681 5677 5673 5669 5665 5661 5657 5653 5648 5644 5639 5634 5630 5625 5620 5615 5610 5605 5600 5594 5589 5584 5578 5570 5563 5558 5552 5544 5535 5527 5518 5510 5504 5499 5491 5481 5474 5472 5469 5466 5462 5457 5450 5444 5440 5434 5428 5422 5417 5409 5401 5394 5387 5381 5375 5370 5366 5361 5357 5353 5350 5346 5342 5339 5336 5333 5330 5327 5324 5322 5320 5318 5316 5314 5313 5311 5310 5309 5310 5310 5312 5313 5315 5318 5321 5325 5329 5333 5338 5342 5347 5351 5356 5361 5367 5373 5379 5387 5394 5402 5411
5684 5680 5677 5673 5669 5665 5661 5657 5653 5648 5644 5639 5634 5629 5625 5620 5615 5610 5605 5600 5594 5589 5583 5577 5572 5566 5558 5550 5544 5538 5530 5521 5512 5503 5494 5489 5485 5479 5468 5461 5457 5455 5454 5452 5447 5440 5434 5429 5424 5418 5412 5406 5399 5392 5385 5379 5372 5367 5362 5357 5353 5349 5345 5341 5338 5334 5331 5328 5324 5322 5319 5317 5315 5313 5311 5309 5307 5305 5304 5304 5304 5304 5305 5306 5309 5311 5314 5318 5322 5326 5330 5334 5339 5344 5349 5354 5359 5364 5371 5379 5386 5394 5402
5680 5677 5673 5669 5665 5661 5657 5652 5648 5644 5639 5635 5630 5625 5620 5615 5610 5605 5599 5594 5589 5583 5577 5571 5565 5560 5554 5546 5538 5531 5524 5516 5507 5499 5489 5480 5476 5473 5467 5458 5449 5442 5437 5435 5434 5432 5427 5422 5418 5414 5409 5402 5396 5390 5384 5377 5370 5364 5359 5354 5349 5344 5340 5337 5333 5329 5326 5323 5320 5317 5315 5313 5311 5309 5307 5304 5302 5300 5299 5298 5298 5298 5299 5300 5302 5304 5307 5310 5314 5318 5322 5327 5331 5336 5341 5346 5352 5358 5364 5371 5378 5386 5394
5676 5673 5669 5665 5661 5657 5652 5648 5644 5639 5635 5630 5625 5621 5616 5611 5605 5600 5595 5589 5583 5578 5572 5565 5559 5553 5548 5541 5533 5525 5518 5510 5502 5494 5486 5476 5468 5462 5459 5454 5447 5438 5429 5423 5419 5418 5417 5414 5410 5407 5406 5400 5393 5386 5382 5376 5369 5362 5356 5350 5345 5340 5336 5332 5329 5325 5321 5318 5315 5312 5310 5308 5306 5304 5303 5300 5298 5296 5295 5294 5293 5293 5294 5294 5296 5298 5300 5304 5307 5311 5315 5320 5324 5329 5334 5339 5344 5351 5357 5364 5371 5379 5386
5673 5669 5665 5661 5657 5652 5648 5644 5639 5635 5630 5626 5621 5616 5611 5606 5601 5595 5590 5584 5579 5573 5567 5560 5553 5546 5540 5535 5529 5521 5513 5505 5497 5489 5482 5475 5466 5457 5449 5446 5443 5438 5432 5424 5417 5411 5407 5405 5402 5399 5398 5396 5390 5383 5377 5373 5367 5360 5354 5348 5342 5337 5332 5328 5324 5320 5317 5314 5311 5308 5306 5304 5302 5300 5298 5296 5294 5292 5291 5289 5289 5289 5289 5289 5290 5292 5294 5297 5300 5304 5309 5313 5319 5324 5329 5334 5339 5344 5351 5358 5365 5372 5379
5669 5665 5661 5657 5653 5648 5644 5639 5635 5630 5626 5621 5617 5612 5607 5602 5596 5591 5585 5579 5573 5567 5561 5555 5549 5541 5534 5528 5522 5516 5509 5501 5493 5485 5477 5471 5464 5456 5446 5439 5433 5430 5426 5421 5415 5409 5401 5396 5393 5391 5389 5389 5387 5381 5374 5368 5363 5358 5352 5346 5339 5334 5328 5324 5319 5316 5312 5309 5306 5304 5302 5299 5298 5296 5294 5293 5291 5289 5287 5286 5285 5284 5284 5285 5286 5287 5289 5292 5295 5299 5304 5309 5314 5319 5324 5329 5335 5340 5346 5352 5358 5365 5373
5665 5661 5657 5653 5649 5644 5640 5635 5631 5626 5621 5617 5612 5607 5602 5597 5592 5586 5580 5574 5568 5562 5555 5549 5543 5536 5529 5522 5515 5509 5503 5496 5489 5482 5473 5465 5459 5453 5445 5437 5428 5421 5415 5411 5407 5402 5397 5390 5385 5381 5379 5379 5379 5378 5373 5365 5359 5354 5349 5344 5337 5331 5325 5320 5316 5312 5308 5305 5302 5300 5298 5296 5294 5292 5290 5289 5288 5286 5284 5283 5281 5281 5280 5281 5281 5283 5284 5287 5291 5295 5301 5306 5310 5313 5318 5324 5329 5335 5341 5346 5352 5359 5366
5661 5657 5653 5649 5645 5640 5635 5631 5626 5622 5617 5613 5608 5603 5598 5593 5587 5582 5576 5570 5564 5557 5551 5544 5537 5531 5524 5517 5510 5504 5497 5490 5484 5477 5471 5463 5455 5448 5442 5436 5428 5420 5413 5406 5400 5395 5391 5386 5380 5374 5370 5368 5368 5369 5368 5364 5357 5351 5345 5340 5334 5328 5323 5317 5312 5308 5304 5301 5298 5296 5294 5292 5290 5289 5287 5286 5284 5283 5281 5280 5279 5278 5277 5277 5278 5279 5281 5284 5288 5292 5296 5299 5303 5307 5313 5318 5323 5329 5334 5340 5347 5354 5361
5658 5654 5649 5645 5641 5636 5632 5627 5622 5618 5613 5609 5604 5599 5594 5588 5583 5577 5571 5565 5559 5553 5546 5540 5533 5526 5519 5512 5505 5499 5492 5486 5479 5472 5466 5460 5453 5445 5438 5433 5427 5420 5413 5406 5399 5393 5387 5381 5376 5371 5365 5361 5359 5358 5358 5357 5354 5349 5343 5337 5331 5325 5320 5314 5309 5304 5300 5297 5295 5292 5290 5289 5287 5286 5284 5283 5281 5280 5278 5277 5276 5275 5274 5274 5275 5276 5279 5281 5285 5288 5291 5294 5299 5304 5309 5314 5318 5324 5330 5336 5342 5349 5355
5654 5649 5645 5641 5636 5632 5628 5623 5618 5614 5609 5604 5599 5594 5589 5584 5579 5573 5567 5560 5554 5548 5541 5534 5528 5521 5514 5507 5500 5493 5487 5481 5474 5467 5461 5455 5450 5443 5436 5429 5423 5417 5411 5405 5399 5393 5387 5380 5373 5367 5362 5357 5352 5349 5349 5349 5347 5344 5339 5335 5330 5324 5318 5312 5306 5301 5297 5294 5291 5289 5287 5286 5284 5283 5281 5280 5279 5277 5276 5274 5274 5273 5272 5272 5273 5274 5275 5278 5281 5284 5287 5290 5295 5299 5304 5309 5314 5320 5326 5332 5337 5343 5348